Tracking 33404 objects as of 6-Mar-2026
HD Live streaming from Space Station
objects crossing your sky now

STARLINK-4415

Track STARLINK-4415 now!
10-day predictions
STARLINK-4415 is classified as:


NORAD ID: 53465
Int'l Code: 2022-099A
Perigee: 556.5 km
Apogee: 556.7 km
Inclination: 97.6 °
Period: 95.6 minutes
Semi major axis: 6927 km
RCS: Unknown
Launch date: August 12, 2022
Source: United States (US)
Launch site: AIR FORCE WESTERN TEST RANGE (AFWTR)
Your satellite tracking list
Your tracking list is empty




NASA's NSSDC Master Catalog

Two Line Element Set (TLE):
1 53465U 22099A   26065.29945643  .00003119  00000-0  22026-3 0  9995
2 53465  97.6038 187.8793 0000137 162.9669 197.1562 15.05653587195529
Source of the keplerian elements: AFSPC